Hoquiam, WA
on Thursday, December 20, 2012

Thursday
Previous Day Next Day
Daily Summary
 ActualAverageRecord
Temperature
Mean Temperature °F 41°F  
Max Temperature 43°F 46°F 56°F (1974)
Min Temperature 33°F 37°F 16°F (1990)
Degree Days
Heating Degree Days 27 24  
Month to date heating degree days 467  
Cooling Degree Days 0 0  
Month to date cooling degree days 0  
Year to date cooling degree days 23  
Moisture
Dew Point 37°F   
Average Humidity 92    
Maximum Humidity 100    
Minimum Humidity 85    
Precipitation
Precipitation 0.74 in 0.31 in 1.88 in (2014)
Month to date precipitation 6.41  
Year to date precipitation 64.00  
Wind
Wind Speed 6 mph   
Max Wind Speed 16 mph   
Max Gust Speed 24 mph   
Visibility 8 miles   
Events Rain , Snow   

Key: T is trace of precipitation, MM is missing value
Source: NWS Daily Summary
Time(PST)TemperatureDew PointHumidity Pressure Visibility Wind DirectionWind SpeedGust SpeedPrecipitationEvents Conditions
12:07 AM 37.4°F 35.6°F 93% 29.52 in 6.0 miles East 5.8 mph - 0.05 in Rain Rain
12:53 AM 34.0°F 32.0°F 92% 29.51 in 4.0 miles North 4.6 mph - 0.25 in Snow Light Snow
1:05 AM 33.8°F 32.0°F 93% 29.49 in 5.0 miles North 4.6 mph - 0.04 in Rain Light Freezing Rain
1:33 AM 35.6°F 33.8°F 93% 29.49 in 5.0 miles North 6.9 mph - 0.10 in Rain Light Freezing Rain
1:49 AM 35.6°F 33.8°F 93% 29.49 in 3.0 miles North 6.9 mph - 0.12 in Rain Light Freezing Rain
1:53 AM 35.1°F 34.0°F 96% 29.50 in 4.0 miles North 5.8 mph - 0.13 in Rain Light Freezing Rain
2:18 AM 35.6°F 35.6°F 100% 29.49 in 8.0 miles Calm Calm - 0.01 in Rain Light Freezing Rain
2:53 AM 35.1°F 34.0°F 96% 29.53 in 8.0 miles ENE 4.6 mph - 0.02 in Rain Light Freezing Rain
3:07 AM 35.6°F 35.6°F 100% 29.54 in 6.0 miles Calm Calm - 0.00 in Rain Light Rain
3:15 AM 35.6°F 35.6°F 100% 29.54 in 5.0 miles NE 3.5 mph - 0.01 in Rain Light Freezing Rain
3:26 AM 35.6°F 35.6°F 100% 29.53 in 6.0 miles NE 4.6 mph - 0.02 in Rain Light Freezing Rain
3:37 AM 37.4°F 35.6°F 93% 29.53 in 6.0 miles Calm Calm - 0.03 in Rain Light Rain
3:53 AM 37.0°F 36.0°F 96% 29.53 in 7.0 miles NE 4.6 mph - 0.05 in Rain Light Rain
4:04 AM 37.4°F 35.6°F 93% 29.52 in 9.0 miles ENE 5.8 mph - 0.00 in Rain Light Rain
4:37 AM 39.2°F 37.4°F 93% 29.52 in 10.0 miles NE 4.6 mph - 0.00 in   Overcast
4:46 AM 39.2°F 37.4°F 93% 29.51 in 10.0 miles NE 4.6 mph - 0.00 in   Overcast
4:53 AM 39.0°F 37.9°F 96% 29.52 in 10.0 miles NE 4.6 mph - 0.00 in   Overcast
5:39 AM 41.0°F 37.4°F 87% 29.53 in 10.0 miles ENE 6.9 mph - N/A   Overcast
5:53 AM 42.1°F 37.9°F 85% 29.53 in 10.0 miles East 6.9 mph 16.1 mph 0.01 in Rain Light Rain
6:18 AM 41.0°F 37.4°F 87% 29.54 in 10.0 miles SSE 16.1 mph 24.2 mph 0.00 in Rain Light Rain
6:53 AM 39.9°F 37.0°F 89% 29.56 in 10.0 miles SSE 11.5 mph - 0.01 in Rain Light Rain
7:44 AM 39.2°F 35.6°F 87% 29.51 in 10.0 miles ESE 10.4 mph - 0.02 in Rain Light Rain
7:53 AM 39.0°F 36.0°F 89% 29.54 in 10.0 miles ESE 8.1 mph - 0.02 in   Overcast
8:53 AM 39.9°F 37.0°F 89% 29.56 in 10.0 miles East 6.9 mph - 0.00 in   Overcast
9:21 AM 41.0°F 37.4°F 87% 29.56 in 10.0 miles SE 13.8 mph - N/A   Overcast
9:53 AM 41.0°F 37.9°F 89% 29.58 in 10.0 miles SE 16.1 mph - 0.01 in Rain Light Rain
10:20 AM 41.0°F 37.4°F 87% 29.59 in 8.0 miles SE 12.7 mph - 0.00 in Rain Light Rain
10:43 AM 39.2°F 35.6°F 87% 29.61 in 5.0 miles WNW 6.9 mph - 0.02 in Rain Light Rain
10:49 AM 39.2°F 35.6°F 87% 29.60 in 1.8 miles West 3.5 mph - 0.04 in Rain Rain
10:53 AM 39.0°F 37.0°F 93% 29.61 in 1.5 miles North 4.6 mph - 0.06 in Rain Rain
10:59 AM 39.2°F 37.4°F 93% 29.61 in 3.0 miles Calm Calm - 0.00 in Rain Light Rain
11:53 AM 39.9°F 37.0°F 89% 29.62 in 10.0 miles Calm Calm - 0.00 in   Overcast
12:25 PM 39.2°F 37.4°F 93% 29.64 in 1.8 miles Calm Calm - 0.05 in Rain Rain
12:32 PM 39.2°F 37.4°F 93% 29.64 in 2.0 miles NNW 4.6 mph - N/A Rain Rain
12:44 PM 39.2°F 37.4°F 93% 29.65 in 5.0 miles Calm Calm - 0.10 in Rain Light Rain
12:53 PM 39.9°F 39.0°F 97% 29.66 in 7.0 miles Calm Calm - 0.10 in Rain Light Rain
1:34 PM 41.0°F 37.4°F 87% 29.66 in 2.5 miles SSE 10.4 mph - 0.05 in Rain Rain
1:45 PM 42.8°F 39.2°F 87% 29.66 in 9.0 miles SE 12.7 mph - 0.06 in Rain Light Rain
1:53 PM 42.1°F 39.0°F 89% 29.68 in 10.0 miles SSE 15.0 mph - 0.06 in   Overcast
2:23 PM 42.8°F 39.2°F 87% 29.67 in 10.0 miles SE 10.4 mph - N/A   Overcast
2:53 PM 43.0°F 39.9°F 89% 29.70 in 10.0 miles SE 12.7 mph - N/A   Mostly Cloudy
3:53 PM 42.1°F 39.0°F 89% 29.72 in 10.0 miles ESE 8.1 mph - N/A   Overcast
4:12 PM 42.8°F 39.2°F 87% 29.72 in 10.0 miles ESE 9.2 mph - N/A   Overcast
4:40 PM 41.0°F 37.4°F 87% 29.73 in 6.0 miles SE 11.5 mph - 0.01 in Rain Light Rain
4:53 PM 41.0°F 37.9°F 89% 29.74 in 10.0 miles ESE 9.2 mph - 0.02 in   Scattered Clouds
5:53 PM 39.9°F 37.9°F 93% 29.76 in 10.0 miles East 10.4 mph - N/A   Mostly Cloudy
6:53 PM 39.9°F 37.9°F 93% 29.77 in 10.0 miles East 12.7 mph - 0.00 in Rain Light Rain
7:53 PM 39.0°F 37.0°F 93% 29.77 in 10.0 miles ENE 11.5 mph - 0.00 in   Scattered Clouds
8:53 PM 37.9°F 36.0°F 93% 29.77 in 10.0 miles ENE 11.5 mph - N/A   Clear
9:53 PM 37.9°F 35.1°F 89% 29.78 in 10.0 miles ENE 10.4 mph - N/A   Clear
10:53 PM 37.9°F 36.0°F 93% 29.78 in 10.0 miles ENE 12.7 mph - N/A   Clear
11:53 PM 37.0°F 35.1°F 93% 29.77 in 10.0 miles ENE 10.4 mph - N/A   Clear
Moon Phase
Dec. 20 Dec. 28 Jan. 04 Jan. 11 Jan. 18
Sunrise:07:58 AM (PST) Moon Rise:12:08 PM (PST)12/20
Sunset:04:29 PM (PST) Moon Set:12:30 AM (PST)12/20

Copyright © 2014 The Weather Underground, Inc.